This is the latest recevied weather packets stored in our database for station/object 4S6DRJ-13. If no packets are shown the sender has not sent any weather packets the latest 10 day(s).
| Time | Temp. | Humidity | Pressure | Rain* | Wind** | Luminosity | Snow |
|---|---|---|---|---|---|---|---|
| 1787859997 | 27.22° C | 89% | 1009.5 hPa | 0 mm | 0.45 m/s, 196° | 0 W/m² | - |
| 1787859936 | 27.22° C | 89% | 1009.6 hPa | 0 mm | 0.89 m/s, 144° | 0 W/m² | - |
| 1787859875 | 27.22° C | 89% | 1009.6 hPa | 0 mm | 0.89 m/s, 178° | 0 W/m² | - |
| 1787859814 | 26.67° C | 89% | 1009.7 hPa | 0 mm | 0.45 m/s, 181° | 0 W/m² | - |
| 1787859753 | 26.67° C | 89% | 1009.7 hPa | 0 mm | 0.89 m/s, 187° | 0 W/m² | - |
| 1787859692 | 26.67° C | 89% | 1009.6 hPa | 0 mm | 0.45 m/s, 155° | 0 W/m² | - |
| 1787859631 | 26.67° C | 89% | 1009.7 hPa | 0 mm | 0 m/s | 0 W/m² | - |
| 1787859571 | 26.67° C | 88% | 1009.9 hPa | 0 mm | 0 m/s | 0 W/m² | - |
| 1787859509 | 26.67° C | 88% | 1009.7 hPa | 0 mm | 0.45 m/s, 156° | 0 W/m² | - |
| 1787859449 | 26.67° C | 88% | 1009.7 hPa | 0 mm | 0.89 m/s, 166° | 0 W/m² | - |
| 1787859388 | 26.67° C | 88% | 1009.7 hPa | 0 mm | 0.45 m/s, 175° | 0 W/m² | - |
| 1787859327 | 27.22° C | 88% | 1009.8 hPa | 0 mm | 0.45 m/s, 166° | 0 W/m² | - |
| 1787859265 | 27.22° C | 88% | 1009.9 hPa | 0 mm | 0 m/s | 0 W/m² | - |
| 1787859204 | 27.22° C | 88% | 1009.8 hPa | 0 mm | 0 m/s | 0 W/m² | - |
| 1787859143 | 27.22° C | 88% | 1009.8 hPa | 0 mm | 0 m/s | 0 W/m² | - |
| 1787859081 | 27.22° C | 88% | 1009.9 hPa | 0 mm | 0.45 m/s, 182° | 0 W/m² | - |
| 1787859021 | 27.22° C | 88% | 1010 hPa | 0 mm | 0.89 m/s, 170° | 0 W/m² | - |
| 1787858959 | 27.22° C | 88% | 1009.8 hPa | 0 mm | 0.45 m/s, 176° | 0 W/m² | - |
| 1787858899 | 27.22° C | 88% | 1009.8 hPa | 0 mm | 0 m/s | 0 W/m² | - |
| 1787858838 | 27.22° C | 88% | 1010 hPa | 0 mm | 0.45 m/s, 204° | 0 W/m² | - |
| 1787858777 | 27.22° C | 88% | 1009.9 hPa | 0 mm | 0 m/s | 0 W/m² | - |
| 1787858716 | 27.22° C | 88% | 1009.8 hPa | 0 mm | 0.45 m/s, 142° | 0 W/m² | - |
| 1787858654 | 27.22° C | 88% | 1009.9 hPa | 0 mm | 0.45 m/s, 156° | 0 W/m² | - |
| 1787858594 | 27.22° C | 88% | 1010 hPa | 0 mm | 0 m/s | 0 W/m² | - |
| 1787858533 | 27.22° C | 88% | 1010 hPa | 0 mm | 0 m/s | 0 W/m² | - |
* Rain latest hour (hover to see other rain measurements)
** Current wind speed in m/s (hover to see current wind gust speed)